Weather History for KCKC - June, 2014

Change the Weather History Date:

Thursday, June 19, 2014

  Actual Average Record
Temperature  
Mean Temperature 58 °F -  
Max Temperature 66 °F 66 °F 136 °F (1997)
Min Temperature 51 °F 47 °F 33 °F (2013)
Degree Days  
Heating Degree Days 6    
Growing Degree Days 8 (Base 50)    
Moisture  
Dew Point 43 °F    
Average Humidity 56    
Maximum Humidity 68    
Minimum Humidity 44    
Precipitation  
Precipitation 0.00 in - - ()
Sea Level Pressure  
Sea Level Pressure 30.16 in    
Wind  
Wind Speed 10 mph (East)    
Max Wind Speed 23 mph    
Max Gust Speed 32 mph    
Visibility 10 miles    
Events      
Averages and records for this station are not official NWS values.
T = Trace of Precipitation, MM = Missing Value Source: NWS Daily Summary

Daily Weather History Graph

Daily Weather History Graph

Search for Another Location

Airport or City:

Trip Planner

Search our weather history database for the weather conditions in past years. The results will help you decide how hot, cold, wet, or windy it might be!

Date:

Astronomy

Jun. 19, 2014 Rise Set
Actual Time 5:02 AM CDT 9:03 PM CDT
Civil Twilight 4:21 AM CDT 9:44 PM CDT
Nautical Twilight 3:24 AM CDT 10:41 PM CDT
Astronomical Twilight 1:48 AM CDT 12:17 AM CDT
Moon 12:38 AM CDT (6/19) 1:04 PM CDT (6/19)
Length of Visible Light 17h 23m
Length of Day
16h 01m
Waning Gibbous, 51% of the Moon is Illuminated
Jun 19
Waning Gibbous
Jun 19
Last Quarter
Jun 27
New
Jul 5
First Quarter
Jul 12
Full

Hourly Weather History & Observations

Time (CDT) Temp. Dew Point Humidity Pressure Visibility Wind Dir Wind Speed Gust Speed Precip Events Conditions
12:14 AM 53.6 °F 37.4 °F 54% 30.17 in 10.0 mi ENE 8.1 mph - N/A   Clear
12:34 AM 53.6 °F 37.4 °F 54% 30.17 in 10.0 mi ENE 6.9 mph - N/A   Clear
12:53 AM 53.6 °F 35.6 °F 51% 30.18 in 10.0 mi ENE 8.1 mph - N/A   Clear
1:11 AM 53.6 °F 35.6 °F 51% 30.18 in 10.0 mi ENE 5.8 mph - N/A   Clear
1:34 AM 53.6 °F 35.6 °F 51% 30.18 in 10.0 mi ENE 6.9 mph - N/A   Clear
1:53 AM 53.6 °F 35.6 °F 51% 30.18 in 10.0 mi ENE 6.9 mph - N/A   Clear
2:13 AM 53.6 °F 33.8 °F 47% 30.18 in 10.0 mi ENE 8.1 mph - N/A   Clear
2:34 AM 53.6 °F 33.8 °F 47% 30.16 in 10.0 mi ENE 10.4 mph - N/A   Clear
2:54 AM 53.6 °F 35.6 °F 51% 30.15 in 10.0 mi ENE 8.1 mph - N/A   Clear
3:13 AM 53.6 °F 35.6 °F 51% 30.15 in 10.0 mi East 8.1 mph - N/A   Clear
3:34 AM 53.6 °F 37.4 °F 54% 30.16 in 10.0 mi ENE 9.2 mph - N/A   Clear
3:54 AM 53.6 °F 37.4 °F 54% 30.16 in 10.0 mi ENE 9.2 mph - N/A   Clear
4:13 AM 51.8 °F 37.4 °F 58% 30.16 in 10.0 mi ENE 8.1 mph - N/A   Clear
4:33 AM 51.8 °F 39.2 °F 62% 30.17 in 10.0 mi East 8.1 mph - N/A   Clear
5:13 AM 53.6 °F 42.8 °F 67% 30.19 in 10.0 mi East 8.1 mph - N/A   Clear
5:34 AM 53.6 °F 39.2 °F 58% 30.19 in 10.0 mi East 10.4 mph 18.4 mph N/A   Clear
5:53 AM 53.6 °F 37.4 °F 54% 30.20 in 10.0 mi East 8.1 mph - N/A   Clear
6:13 AM 53.6 °F 37.4 °F 54% 30.19 in 10.0 mi East 11.5 mph - N/A   Clear
6:33 AM 53.6 °F 39.2 °F 58% 30.18 in 10.0 mi East 13.8 mph 20.7 mph N/A   Clear
6:54 AM 53.6 °F 39.2 °F 58% 30.17 in 10.0 mi East 12.7 mph 19.6 mph N/A   Clear
7:13 AM 53.6 °F 41.0 °F 62% 30.19 in 10.0 mi East 9.2 mph 16.1 mph N/A   Clear
7:34 AM 55.4 °F 42.8 °F 63% 30.20 in 10.0 mi East 9.2 mph 18.4 mph N/A   Clear
7:53 AM 55.4 °F 42.8 °F 63% 30.22 in 10.0 mi East 6.9 mph - N/A   Scattered Clouds
8:14 AM 55.4 °F 42.8 °F 63% 30.23 in 10.0 mi East 10.4 mph 16.1 mph N/A   Overcast
8:33 AM 55.4 °F 42.8 °F 63% 30.24 in 10.0 mi ENE 10.4 mph 16.1 mph N/A   Mostly Cloudy
8:54 AM 55.4 °F 44.6 °F 67% 30.24 in 10.0 mi ENE 9.2 mph - N/A   Mostly Cloudy
9:14 AM 57.2 °F 46.4 °F 67% 30.23 in 10.0 mi East 8.1 mph - N/A   Scattered Clouds
10:13 AM 62.6 °F 50.0 °F 63% 30.20 in 10.0 mi ESE 10.4 mph 21.9 mph N/A   Clear
10:33 AM 64.4 °F 50.0 °F 59% 30.19 in 10.0 mi East 10.4 mph 23.0 mph N/A   Clear
10:53 AM 60.8 °F 50.0 °F 68% 30.20 in 10.0 mi East 10.4 mph 18.4 mph N/A   Scattered Clouds
11:14 AM 62.6 °F 50.0 °F 63% 30.20 in 10.0 mi ESE 8.1 mph 21.9 mph N/A   Scattered Clouds
11:33 AM 60.8 °F 50.0 °F 68% 30.21 in 10.0 mi East 10.4 mph 17.3 mph N/A   Mostly Cloudy
11:54 AM 62.6 °F 51.8 °F 68% 30.20 in 10.0 mi East 13.8 mph 21.9 mph N/A   Scattered Clouds
12:13 PM 64.4 °F 51.8 °F 64% 30.18 in 10.0 mi East 15.0 mph 23.0 mph N/A   Clear
12:34 PM 64.4 °F 51.8 °F 64% 30.17 in 10.0 mi East 18.4 mph 25.3 mph N/A   Clear
12:54 PM 64.4 °F 50.0 °F 59% 30.16 in 10.0 mi East 16.1 mph 26.5 mph N/A   Clear
1:13 PM 64.4 °F 50.0 °F 59% 30.15 in 10.0 mi East 17.3 mph 26.5 mph N/A   Scattered Clouds
1:33 PM 62.6 °F 51.8 °F 68% 30.15 in 10.0 mi East 11.5 mph 24.2 mph N/A   Scattered Clouds
1:54 PM 64.4 °F 51.8 °F 64% 30.14 in 10.0 mi East 17.3 mph 24.2 mph N/A   Scattered Clouds
2:13 PM 64.4 °F 50.0 °F 59% 30.15 in 10.0 mi East 16.1 mph 24.2 mph N/A   Scattered Clouds
2:34 PM 62.6 °F 50.0 °F 63% 30.16 in 10.0 mi East 13.8 mph 18.4 mph N/A   Mostly Cloudy
2:54 PM 64.4 °F 50.0 °F 59% 30.15 in 10.0 mi East 15.0 mph 23.0 mph N/A   Scattered Clouds
3:13 PM 64.4 °F 50.0 °F 59% 30.14 in 10.0 mi ENE 13.8 mph 23.0 mph N/A   Scattered Clouds
3:34 PM 64.4 °F 46.4 °F 52% 30.12 in 10.0 mi East 20.7 mph 28.8 mph N/A   Scattered Clouds
3:54 PM 66.2 °F 46.4 °F 49% 30.11 in 10.0 mi ENE 23.0 mph 32.2 mph N/A   Scattered Clouds
4:13 PM 64.4 °F 44.6 °F 49% 30.11 in 10.0 mi East 15.0 mph 27.6 mph N/A   Mostly Cloudy
4:33 PM 64.4 °F 44.6 °F 49% 30.12 in 10.0 mi East 18.4 mph 28.8 mph N/A   Overcast
4:54 PM 62.6 °F 44.6 °F 52% 30.13 in 10.0 mi East 17.3 mph 26.5 mph N/A   Mostly Cloudy
5:13 PM 62.6 °F 44.6 °F 52% 30.14 in 10.0 mi ENE 16.1 mph 27.6 mph N/A   Overcast
5:34 PM 62.6 °F 44.6 °F 52% 30.15 in 10.0 mi East 17.3 mph 25.3 mph N/A   Overcast
5:54 PM 60.8 °F 44.6 °F 55% 30.16 in 10.0 mi East 15.0 mph 23.0 mph N/A   Overcast
6:13 PM 60.8 °F 44.6 °F 55% 30.16 in 10.0 mi ENE 15.0 mph 24.2 mph N/A   Overcast
6:33 PM 60.8 °F 44.6 °F 55% 30.15 in 10.0 mi ENE 12.7 mph 24.2 mph N/A   Overcast
6:54 PM 60.8 °F 44.6 °F 55% 30.15 in 10.0 mi ENE 16.1 mph 21.9 mph N/A   Overcast
7:13 PM 60.8 °F 44.6 °F 55% 30.14 in 10.0 mi East 12.7 mph 24.2 mph N/A   Overcast
7:33 PM 60.8 °F 44.6 °F 55% 30.13 in 10.0 mi East 10.4 mph 19.6 mph N/A   Overcast
7:54 PM 60.8 °F 44.6 °F 55% 30.13 in 10.0 mi ENE 11.5 mph 20.7 mph N/A   Overcast
8:13 PM 60.8 °F 42.8 °F 52% 30.13 in 10.0 mi ENE 13.8 mph 20.7 mph N/A   Overcast
8:33 PM 59.0 °F 42.8 °F 55% 30.13 in 10.0 mi ENE 11.5 mph 16.1 mph N/A   Overcast
8:54 PM 59.0 °F 42.8 °F 55% 30.13 in 10.0 mi ENE 12.7 mph 20.7 mph N/A   Overcast
9:13 PM 59.0 °F 41.0 °F 51% 30.12 in 10.0 mi ENE 15.0 mph 20.7 mph N/A   Overcast
9:33 PM 57.2 °F 41.0 °F 55% 30.13 in 10.0 mi East 11.5 mph - N/A   Overcast
9:54 PM 57.2 °F 39.2 °F 51% 30.13 in 10.0 mi East 10.4 mph 16.1 mph N/A   Overcast
10:13 PM 57.2 °F 39.2 °F 51% 30.12 in 10.0 mi East 11.5 mph 17.3 mph N/A   Overcast
10:34 PM 57.2 °F 39.2 °F 51% 30.12 in 10.0 mi East 15.0 mph 20.7 mph N/A   Overcast
10:54 PM 57.2 °F 37.4 °F 48% 30.12 in 10.0 mi East 10.4 mph 23.0 mph N/A   Overcast
11:13 PM 57.2 °F 35.6 °F 44% 30.10 in 10.0 mi East 11.5 mph 19.6 mph N/A   Overcast
11:33 PM 55.4 °F 35.6 °F 47% 30.10 in 10.0 mi East 8.1 mph - N/A   Overcast
11:54 PM 55.4 °F 35.6 °F 47% 30.10 in 10.0 mi East 8.1 mph - N/A   Overcast